Notices

What's New in latest Release from April 7th, 2021:

- Updated Glossary, including Speed of Maximum Gust, and Total Hourly Precipitation

- Updated national and regional climate services offices contacts and prices information

- Addition of station inventory lists for 1981-2010, 1971-2000, and 1961-1990 Normals.

If you haven't already, please take our survey and provide feedback about our website: https://eccc.sondage-survey.ca/f/LanguageSelection.aspx?s=442ca660-fcf1-47c0-95a9-59707d6fd709

Hourly Data Report for February 18, 2021

OTTAWA INTL A
ONTARIO
Current Station Operator: NAVCAN

45°19'00.000" N
75°40'00.000" W
114.90 m
6106001
71628
YOW

Download Data

Hourly Data (February 2021)
Hourly Data Report for February 18, 2021
TIME
LST
Temp Definition
°C
Dew Point Definition
°C
Rel Hum Definition
%
Precip. Amount Definition
mm

Wind Dir Definition
10's deg

Wind Spd Definition
km/h
Visibility Definition
km
Stn Press Definition
kPa
Hmdx Definition


Wind Chill Definition


Weather Definition


00:00 -13.3 -15.3 85   19 7 24.1 101.69   -18 LegendNANA
01:00 -14.0 -16.0 85   20 9 24.1 101.74   -20 Mostly Cloudy
02:00 -14.0 -15.7 87   19 8 24.1 101.78   -19 LegendNANA
03:00 -14.2 -15.4 91   20 9 24.1 101.79   -20 LegendNANA
04:00 -14.1 -15.5 89   25 4 24.1 101.81   -17 Mostly Cloudy
05:00 -14.9 -16.6 88   23 5 24.1 101.86   -18 LegendNANA
06:00 -15.9 -17.8 86   36 2 24.1 101.88   -17 LegendNANA
07:00 -17.1 -19.0 85   3 5 24.1 101.84   -21 Mostly Cloudy
08:00 -16.9 -18.8 85   5 8 24.1 101.85   -23 LegendNANA
09:00 -14.5 -16.4 86   0 1 24.1 101.86   -15 LegendNANA
10:00 -10.9 -12.5 89   4 9 24.1 101.75   -16 Mostly Cloudy
11:00 -7.8 -13.1 66   4 7 24.1 101.66   -11 LegendNANA
12:00 -6.2 -12.7 61   3 10 24.1 101.63   -11 LegendNANA
13:00 -4.7 -12.1 56   2 3 24.1 101.63   -6 Mostly Cloudy
14:00 -5.0 -12.5 56   36 1 24.1 101.62   -5 LegendNANA
15:00 -5.0 -12.9 54   10 8 24.1 101.57   -9 LegendNANA
16:00 -5.6 -12.5 58   12 10 24.1 101.55   -10 Mostly Cloudy
17:00 -5.6 -13.5 54   15 5 24.1 101.57   -8 LegendNANA
18:00 -6.6 -13.4 59   15 4 24.1 101.54   -9 LegendNANA
19:00 -7.3 -13.0 64   2 6 24.1 101.52   -10 Mostly Cloudy
20:00 -8.4 -13.1 69   2 11 24.1 101.43   -14 LegendNANA
21:00 -8.1 -13.2 67   3 13 24.1 101.41   -14 LegendNANA
22:00 -7.3 -13.2 63   6 13 24.1 101.37   -13 Cloudy
23:00 -8.1 -13.1 67   7 12 24.1 101.33   -14 LegendNANA

Notes on Data Quality.

Legend

  • E = Estimated
  • M = Missing
  • NA = Not Available*
  • [empty] = Indicates an unobserved value
Date modified: